Regional Weather Roundup
Issued by NWS

Home | Current Version | Previous Version | Text Only | Print | Product List | Glossary On
Versions: 1 2 3 4 5 6 7 8 9 10 11 12 13 14 15 16 17 18 19 20 21 22 23 24 25 26 27 28 29 30 31 32 33 34 35 36 37 38 39 40 41 42 43 44 45 46 47 48 49 50
000
ASUS45 KABQ 290101
RWRNM
NEW MEXICO REGIONAL WEATHER ROUNDUP
NATIONAL WEATHER SERVICE ALBUQUERQUE NM
700 PM MDT SAT MAY 28 2016

NOTE: "FAIR" MEANS FEW OR NO CLOUDS BELOW 12,000 FEET AGL WITH NO
       SIGNIFICANT WEATHER OR OBSTRUCTIONS TO VISION.

      THIS PRODUCT IS RELEASED AS TWO VERSIONS.  ONE VERSION NEAR
      THE TOP OF THE HOUR CONTAINING PRELIMINARY DATA FROM ALBUQUERQUE
      AND OTHER STATIONS.  A FINAL VERSION WITH ADDITIONAL DATA IS
      ISSUED ABOUT 10 MINUTES AFTER THE HOUR.

NMZ501-503-504-510>518-290200-
NORTHWEST PLATEAU/NORTHCENTRAL MOUNTAINS

CITY           SKY/WX    TMP DP  RH WIND       PRES   REMARKS
FARMINGTON     FAIR      75  24  15 W5        30.03S
SANTA FE       FAIR      74  18  12 W10       30.09R
TAOS           FAIR      66  21  18 NW6       30.15R

$$
NMZ402-403-502-505>509-290200-
WESTCENTRAL MOUNTAINS/SOUTHWEST MOUNTAINS

CITY           SKY/WX    TMP DP  RH WIND       PRES   REMARKS
GALLUP         FAIR      76  18  11 NW9       30.05S
GRANTS         FAIR      71  21  15 SE9       30.09S
SILVER CITY      N/A     81   3   5 SW12G20   30.04R

$$
NMZ407-409-411-412-290200-
SOUTHERN DESERTS

CITY           SKY/WX    TMP DP  RH WIND       PRES   REMARKS
LORDSBURG      FAIR      86   0   3 SW10G20   29.93R
DEMING         FAIR      86   3   4 SW14G20   29.94S
HOLLOMAN AFB   FAIR      86   8   5 SE9       29.94S
ALAMOGORDO     FAIR      84  10   6 SW9       29.97R
T OR C         FAIR      83   6   5 S16       29.97S

$$
NMZ519>523-290200-
CENTRAL VALLEYS/CENTRAL HIGHLANDS

CITY           SKY/WX    TMP DP  RH WIND       PRES   REMARKS
ALBUQUERQUE    FAIR      80  20  10 SW12      30.02S
DOUBLE EAGLE   MOSUNNY   75  27  16 VRB7      30.06S
CLINES CORNERS FAIR      69  23  17 SW3       30.13R
BELEN          FAIR      80  17   9 SE12      30.01R
SOCORRO        NOT AVBL

$$
NMZ524>526-539-540-290200-
SOUTHCENTRAL MOUNTAINS

CITY           SKY/WX    TMP DP  RH WIND       PRES   REMARKS
RUIDOSO        NOT AVBL

$$
NMZ527>531-290200-
NORTHEAST HIGHLANDS/NORTHEAST PLAINS

CITY           SKY/WX    TMP DP  RH WIND       PRES   REMARKS
LAS VEGAS      FAIR      68  23  18 SW10      30.13R
RATON          FAIR      67  36  31 NE8       30.10R
CLAYTON        FAIR      74  33  22 SE7       30.05R

$$
NMZ532>537-290200-
EASTCENTRAL PLAINS

CITY           SKY/WX    TMP DP  RH WIND       PRES   REMARKS
TUCUMCARI      FAIR      84  28  13 S16       29.97R
CANNON AFB     FAIR      82  33  16 S7        30.02R
CLOVIS AIRPORT FAIR      81  34  18 S8        30.02S

$$
NMZ028-029-538-290200-
SOUTHEAST PLAINS

CITY           SKY/WX    TMP DP  RH WIND       PRES   REMARKS
ROSWELL        FAIR      88  22   9 SE16G22   29.93S
ARTESIA        FAIR      88  27  11 SE12      29.92S
CARLSBAD       FAIR      89  19   7 E12       29.89S
HOBBS          FAIR      86  14   7 S7        29.97S


$$




USA.gov is the U.S. government's official web portal to all federal, state and local government web resources and services.